Погода в Каце

Погода в Каце : погода сейчас, прогноз погоды и архив. Всё, что Вы хотите узнать о погоде в Каце!

Поиск расширенной информации на нашем сайте:

Полезная информация: Плитка из резины резиновая плитка.

Другие новости

Новости СМИ2

Главная страница сайта

Новости сайта

02.10.2013

Напоминаем, что на нашем новом сайте вы можете получить высокодетализированные прогнозы погоды по пунктам России, СНГ и мира (включающие важные для авиации метеовеличины, такие как направление и скорость ветра, видимость, явления погоды, количество и форма облачности, нижняя и верхняя граница облачности), а также ознакомиться с разнообразными материалами по авиационной метеорологии и подборкой полезных ссылок на эту тему.

Сайт Метеоцентр.Азия посвящён разработке технологий оптимизации авиаметеорологического обслуживания, включая проектирование и перспективное создание нескольких автоматизированных авиаметеорологических систем:
- система выпуска высокодетальных прогностических карт явлений погоды для нижнего воздушного пространства по России и ближнему зарубежью;
- система верификации прогнозов TAF (выпускаемых синоптиками официальных АМСГ РФ и ближнего зарубежья) и AUTOTAF (выпускаемых сайтом Метеоцентр.Азия) - выявление ошибок, онлайн-сопоставление с фактической погодой METAR, автоматическое внесение коррективов в прогнозы при резком отклонении фактической погоды от прогноза, подсчёт оправдываемости прогнозов по элементам и в целом;
- система обработки, анализа и отображения авиаметеорологической информации для применения провайдерами метеорологической информации.

Рекомендуем: Видеоинтерфейс, интерфейс hdmi мультимедийный: схема распиновки.

Погода в Каце - сегодня

Время (UTC), дата Ветер
(°,м/с) 
Видим.   Явления Облачность Т
(°С)
Тd
(°С)
f(%) Тe
(°С)
Pmin
(гПа)
dP
(гПа)
Po
(мм)
O2
(г/м3)
Тmin Tmax R s Состояние
почвы
18 20.04.17 230 (ЮЗ) 20000 м    ясно 
-3.1 -4.8 88 -3  1021.9  0.7  722  295           
21 20.04.17 220 (ЮЗ) 20000 м    8/0 верхняя 
[Ci sp]
-5.5 -6.5 93 -5  1022.1  -0.3  721  297           
00 21.04.17 240 (ЮЗ) 20000 м    8/8 1170 м 
[Sc]
-2.3 -5.1 81 -3  1021.5  0.1  722  294  -5.8      мокрый или
старый снег
50-90% 
03 21.04.17 270 (З) 20000 м  слаб. снег  10/10 2000 м 
[As trans]
-1.2 -5 75 -3  1021.2  722  292           
06 21.04.17 290 (З) 2{10}  20000 м  слаб. ливневой снег  10/10 720 м кучево-дожд. 
[Cb cap]
+0 -5.7 65 -1  1020.8  0.1  721  291           
09 21.04.17 300 (СЗ) 20000 м  {ливн. осадки}  8/8 870 м кучево-дожд. 
[Cb cap]
+2.3 -8.3 45 +1  1020.9  0.5  722  289           
12 21.04.17 300 (СЗ) 20000 м  {ливн. осадки}  5/5 600 м кучево-дожд. 
[Cb cap]
+1.2 -9.9 43 +1  1022.3  1.1  723  291    +2.6  0.3     
15 21.04.17 тихо ()   20000 м    ясно 
-4.4 -7.8 77 -4  1024.8  1.1  723  297           
18 21.04.17 240 (ЮЗ) 20000 м    ясно 
-7.9 -9.4 89 -8  1026  0.4  724  301           
21 21.04.17 тихо ()   20000 м    ясно 
-10.2 -11.3 92 -10  1027.2  0.6  724  304           
00 22.04.17 тихо ()   20000 м    ясно 
-7.8 -9.4 88 -8  1027.1  0.6  725  301  -11.1      мокрый или
старый снег
50-90% 
03 22.04.17 100 (В) 20000 м    3/0 верхняя 
[Ci fib]
+0.6 -11.1 41 +1  1024.8  -0.3  724  292           
06 22.04.17 030 (СВ) 20000 м    4/0 верхняя 
[Ci fib]
+3.9 -9.3 37 +3  1022.8  -1.2  723  288           
09 22.04.17 080 (В) 20000 м    6/0 верхняя 
[Ci fib]
+6.5 -10.8 28 +6  1020.7  -1.5  722  285           
12 22.04.17 090 (В) 20000 м    4/0 верхняя 
[Ci sp]
+5.5 -11.3 29 +4  1019.5  -1.3  721  286    +6.7       
15 22.04.17 080 (В) 20000 м    ясно 
+0.8 -10 44 1019.6  -0.9  721  290           
18 22.04.17 060 (СВ) 20000 м    ясно 
-1.8 -9.4 56 -1  1019.1  -1  720  293           
21 22.04.17 050 (СВ) 20000 м    ясно 
-2.6 -9.5 59 -4  1018.2  -1.1  719  293           
00 23.04.17 060 (СВ) 20000 м    4/0 верхняя 
[Ci sp]
-0.4 -9.4 51 -1  1017.3  -0.4  719  291  -3.4      мокрый или
старый снег
50-90% 
03 23.04.17 080 (В) 20000 м    8/0 верхняя 
[Ci sp]
+5.4 -7.9 38 +3  1016.3  0.3  719  285           
06 23.04.17 080 (В) 20000 м    6/0 верхняя 
[Ci fib]
+10.2 -8 27 +9  1015.8  0.5  719  280           
09 23.04.17 090 (В) 20000 м    4/0 верхняя 
[Ci fib]
+13.3 -10.3 18 +13  1015.7  0.4  720  277           
12 23.04.17 090 (В) 20000 м    5/0 верхняя 
[Ci sp]
+12.6 -10.2 19 +12  1016.9  721  278    +13.6       
15 23.04.17 тихо ()   20000 м    3/0 верхняя 
[Ci sp]
+3.4 -7.2 46 +3  1020.7  1.8  722  288           
18 23.04.17 тихо ()   20000 м    4/0 верхняя 
[Ci sp]
+5 +2.1 81 +5  1021.3  0.9  723  286           
Время (UTC), дата Ветер
(°,м/с) 
Видим.   Явления Облачность Т
(°С)
Тd
(°С)
f(%) Тe
(°С)
Pmin
(гПа)
dP
(гПа)
Po
(мм)
O2
(г/м3)
Тmin Tmax R s Состояние
почвы

Для получения пояснительной информации подведите курсор к названию столбца.

ПОГОДА в Каце - архив

Всё, что Вы хотите узнать о погоде в Каце - удобно и подробно!

Выберите нужную дату (начиная с 1 января 2015* года) и нажмите кнопку "Найти".
Будут отображены архивные сводки погоды по пункту Каца, начиная с указанной даты.


Отображать данные в формате CSV (для использования в таблицах Excel)


Внимание! Наш архив погоды предназначен исключительно для личного некоммерческого использования в познавательных целях. Если Вам необходимы официальные справки о состоянии погоды (для производственных, юридических, коммерческих и т.п. целей), обращайтесь в органы Росгидромета.

*Примечание: данная дата относится к архиву по метеостанциям СССР (Россия, СНГ, Балтия).
Архив по метеостанциям Зарубежной Европы и Азии (кроме Китая) хранится 10 дней, по другим регионам земного шара (Китай, Африка, Америка, Австралия, Океания) - 1 день.

Каца - район местоположения метеостанции


Название, широта, долгота, высота метеостанции:
Каца 56.1°ш. 92.2°д. 479 м над ур. моря [Российская Федерация]

Дополнительная информация

В oтличие oт бoльшинства пoгoдных сайтoв мы публикуем пoдрoбную метеoинфoрмацию в детальнoм прoфессиoнальнoм фoрмате.

Характеристики температуры и влажнoсти вoздуха измеряются на высoте 2 м в тени вдали oт зданий и деревьев.
Скoрoсть ветра измеряется на высoте 10 м (на урoвне рoста челoвека скoрoсть ветра ниже в 1.5-2 раза). Если метеoстанция нахoдится в гoрoде или в лесу, тo скoрoсть ветра занижена на 2-4 м/с пo сравнению с oткрытым местoм. Скoрoсть ветра над акватoриями крупных рек и oзёр, а также на вершинах хoлмoв на 2-5 м/с выше, чем в oбычных услoвиях.
Атмoсфернoе давление в разных тoчках местнoсти мoжет значительнo oтличаться oт давления на метеoстанции, в зависимoсти oт услoвий рельефа (при пoдъёме на 10 м давление пoнижается примернo на 1 мм рт.ст.).